Location: Ellingshausen
(50.5460°N, 10.4723°E)
Time: 19:36:04
(UTC+00:00)

USA 307 - Pass Details

Date: 18 January 2026
Orbit: 495 x 502 km, 54.0° (Epoch: 10 March)

Event Time Altitude Azimuth Distance (km) Brightness Sun altitude
Exits shadow 04:32:58 57° 117° (ESE) 599 3.2 -24.4°
Drops below altitude 10° 04:36:11 10° 115° (ESE) 1,693 6.2 -23.9°
Sets 04:38:20 0° 116° (ESE) 2,524 7.4 -23.6°
